Location: Beekmeers
(50.8953°N, 3.6968°E)
Time: 18:28:44
(UTC+00:00)

COSMOS 2251 DEB - Visible Passes

Search period start: 07 October 2024 00:00
Search period end: 17 October 2024 00:00
Orbit: 749 x 821 km, 74.1° (Epoch: 07 October)

Date Brightness Start Highest point End Pass type
(mag) Time Alt. Az. Time Alt. Az. Time Alt. Az.
07 Oct ? 18:33:35 10° NW 18:37:34 21° W 18:41:30 10° SW visible
08 Oct ? 18:01:12 10° NW 18:05:54 30° W 18:10:30 10° SSW visible
09 Oct ? 17:29:01 10° NW 17:34:09 42° WSW 17:39:11 10° S visible
11 Oct ? 18:09:05 10° WNW 18:12:00 15° W 18:14:52 10° SW visible
12 Oct ? 05:29:49 10° SE 05:33:44 20° E 05:37:41 10° NE visible
12 Oct ? 17:36:20 10° NW 17:40:22 21° W 17:44:19 10° SW visible
13 Oct ? 04:59:22 10° ESE 05:02:05 14° E 05:04:49 10° ENE visible
15 Oct ? 05:34:46 10° S 05:39:51 39° ESE 05:44:59 10° NE visible
16 Oct ? 05:03:28 10° SSE 05:08:03 28° E 05:12:42 10° NE visible
